User: anonymous   Login
Location: Bismarck
(46.7731°N, 100.8200°W)
Time: 19:50:35
(UTC-05:00)
Language:

Cosmos 1125 Rocket - Orbit

View from above orbital plane
View from above orbital plane
View from above satellite
View from above satellite

Ground track
Ground track

The orbit data is extracted from the following two-line orbital elements,

1 11511U 79078B   17207.22556601 +.00000011 +00000-0 +12619-4 0  9999
2 11511 074.0354 243.5488 0014499 119.9320 240.3276 14.36777071983962
Epoch (UTC): 26 July 2017 05:24:48
Eccentricity: 0.0014499
inclination: 74.0354°
perigee height: 759 km
apogee height: 779 km
right ascension of ascending node: 243.5488°
argument of perigee: 119.9320°
revolutions per day: 14.36777071
mean anomaly at epoch: 240.3276°
orbit number at epoch: 98396

The dashed part of the orbit path shows where the satellite is in the earth's shadow,  

DLR